DELTA 1 DEB, 21515

Orbit data source: Space-Track

DELTA 1 DEB, 21515 is space debris in SSO originally from a launch on Thu, 12 Jun 1975 UTC launched from the Air Force Western Test Range (AFWTR). Debris objects in space refer to the collection of defunct objects orbiting the Earth. Examples of debris include non-operational satellites, rocket bodies, and fragments generated from explosions, collisions, or faulty payload assembly.

Loading next visibility...
Identifier
21515, 1975-052GL
Orbit
SSO
Country
Flag of USUS
Related business
Manufacturer
Unknown
Mission
Spacecraft
Bus & Motor
Unknown
Mass
Unknown
Launch date (UTC)
1975-06-12 (51 years ago)
Launch vehicle
Unknown
Launch site
Air Force Western Test Range (AFWTR)
Object type
Payload
Rocket body
Debris
Shape & HBR
Unknown shape, 0.1 m
Radar Cross Section
Medium (>0.1 m² and <1 m²)

Expand to show TLE details & history
Last TLE update: 2 days ago

TLE from 2 days ago
0 DELTA 1 DEB
1 21515U 75052GL  26171.09456442 -.00000151  00000-0 -31901-3 0  9990
2 21515  99.7001 220.4154 0272916 226.1839 160.8606 12.98766867663066
Epoch: 2026-06-20T02:16Z
TLE epoch observation values (Epoch: 2026-06-20T02:16:10.365Z)
Latitude
27.63997°
Longitude
-87.05246°
Altitude
1,467.882 km
Speed
7.038 km/s
True Right ascension
14h 21m 13s
True Declination
27° 30' 42"
Sunlit
Object was in daylight at epoch
Visualization orbit readout
Latitude
Unknown
Longitude
Unknown
Altitude
Unknown
Speed
Unknown
Apparent Right ascension
Unknown
Apparent Declination
Unknown
Sunlit
N/A
Visualization observer readout
Local Sidereal Time
12:49:10
Azimuth
Unknown
Elevation
Unknown
Doppler factor
Unknown
Orbital elements
Apogee altitude
1,472.867 km
Perigee altitude
1,055.719 km
Semi-major axis
7,642.43 km
Eccentricity
0.02729
Inclination
99.7001°
RAAN
220.4154°
Arg. of periapsis
226.1839°
True anomaly
161.85387°
Mean anomaly
160.8606°
Eccentric anomaly
161.36038°
Mean motion
3.2486 °/min
Orbital period
110.82 mins
BSTAR
-0.00031901
Loading maneuver chart data...
Computing Atmospheric mass density...

Documentation

Showing up to 5 results
|